This demonstration page uses our WeatherBlox Daily Observations layout. Learn more.

Left ArrowRight Arrow

Hourly Observations for June 13, 2015

Temp ( °F °C ) Dew Point ( °F °C ) Humidity (%) Winds ( mph kmh ) Pressure ( in mb ) Visibility ( mi km ) Precip ( " mm )
12:53 am 00:53 Mostly Cloudy 48 8.9 42 5.6 80 80 W 5 7 29.86 1011 10 16 0.00 0.00
1:53 am 01:53 Mostly Clear 46 7.8 42 5.6 86 86 SW 8 13 29.87 1011 10 16 0.00 0.00
2:53 am 02:53 Clear 48 8.9 40 4.4 74 74 WSW 8 13 29.87 1012 10 16 0.00 0.00
3:53 am 03:53 Partly Cloudy 45 7.2 40 4.4 83 83 SW 7 11 29.87 1011 10 16 0.00 0.00
4:53 am 04:53 Mostly Cloudy 49 9.4 41 5 74 74 WSW 8 13 29.87 1012 10 16 0.00 0.00
5:53 am 05:53 Cloudy with Rain 47 8.3 44 6.7 90 90 SW 9 15 29.90 1012 5 8 0.02 0.51
6:53 am 06:53 Cloudy with Light Rain 48 8.9 44 6.7 86 86 SW 13 20 29.92 1013 10 16 0.00 0.03
7:53 am 07:53 Mostly Cloudy 50 10 44 6.7 80 80 SW 10 17 29.93 1014 10 16 0.00 0.03
8:53 am 08:53 Partly Cloudy 55 12.8 44 6.7 67 67 WSW 8 13 29.92 1013 10 16 0.00 0.00
9:53 am 09:53 Partly Cloudy 59 15 43 6.1 56 56 VRB 3 6 29.92 1013 10 16 0.00 0.00
10:53 am 10:53 Partly Cloudy 62 16.7 43 6.1 50 50 SW 13 20 29.91 1013 10 16 0.00 0.00
11:53 am 11:53 Partly Cloudy 65 18.3 39 3.9 39 39 WSW 12 19 29.90 1013 10 16 0.00 0.00
12:53 pm 12:53 Mostly Sunny 67 19.4 37 2.8 33 33 NW 8 13 29.89 1012 10 16 0.00 0.00
1:53 pm 13:53 Sunny 69 20.6 34 1.1 27 27 SSW 8 13 29.87 1012 10 16 0.00 0.00
2:53 pm 14:53 Mostly Sunny 70 21.1 34 1.1 27 27 VRB 5 7 29.85 1011 10 16 0.00 0.00
3:53 pm 15:53 Partly Cloudy 70 21.1 33 0.6 26 26 W 10 17 29.86 1011 10 16 0.00 0.00
4:53 pm 16:53 Cloudy 73 22.8 32 0 22 22 WNW 10 17 29.85 1011 10 16 0.00 0.00
5:53 pm 17:53 Sunny 73 22.8 31 -0.6 21 21 NW 15 24 29.84 1011 10 16 0.00 0.00
6:53 pm 18:53 Sunny 71 21.7 29 -1.7 21 21 W 5 7 29.84 1011 10 16 0.00 0.00
7:53 pm 19:53 Sunny 72 22.2 28 -2.2 19 19 W 10 17 29.85 1011 10 16 0.00 0.00
8:53 pm 20:53 Sunny 66 18.9 32 0 28 28 NNW 7 11 29.87 1012 10 16 0.00 0.00
9:53 pm 21:53 Clear 62 16.7 34 1.1 35 35 NNW 8 13 29.89 1012 10 16 0.00 0.00
10:53 pm 22:53 Clear 58 14.4 40 4.4 51 51 NNE 12 19 29.93 1014 10 16 0.00 0.00
11:53 pm 23:53 Clear 55 12.8 40 4.4 57 57 NNE 5 7 29.96 1015 10 16 0.00 0.00

Powered by AerisWeather